Weather History for Walla Walla, WA

Change the Weather History Date:

Monday, June 17, 2013

  Actual Average Record
Temperature  
Mean Temperature 75 °F -  
Max Temperature 89 °F 80 °F 106 °F (1961)
Min Temperature 62 °F 53 °F 44 °F (1971)
Cooling Degree Days 10    
Growing Degree Days 25 (Base 50)    
Moisture  
Dew Point 44 °F    
Average Humidity 36    
Maximum Humidity 53    
Minimum Humidity 19    
Precipitation  
Precipitation 0.00 in - - ()
Sea Level Pressure  
Sea Level Pressure 29.93 in    
Wind  
Wind Speed 9 mph (SW)    
Max Wind Speed 18 mph    
Max Gust Speed 23 mph    
Visibility 10 miles    
Events      
Averages and records for this station are not official NWS values.
T = Trace of Precipitation, MM = Missing Value Source: NWS Daily Summary

Daily Weather History Graph

Daily Weather History Graph

Search for Another Location

Airport:

Trip Planner

Search our weather history database for the weather conditions in past years. The results will help you decide how hot, cold, wet, or windy it might be!

Date:

Astronomy

Jun. 17, 2013 Rise Set
Actual Time 5:01 AM PDT 8:47 PM PDT
Civil Twilight 4:22 AM PDT 9:25 PM PDT
Nautical Twilight 3:30 AM PDT 10:17 PM PDT
Astronomical Twilight 2:17 AM PDT 11:31 PM PDT
Moon 2:14 PM PDT (6/17) 12:58 AM PDT (6/17)
Length of Visible Light 17h 03m
Length of Day
15h 45m
First Quarter, 61% of the Moon is Illuminated
Jun 17
First Quarter
Jun 23
Full
Jun 29
Last Quarter
Jul 8
New
Jul 15
First Quarter

Hourly Weather History & Observations

Time (PDT) Temp. Dew Point Humidity Pressure Visibility Wind Dir Wind Speed Gust Speed Precip Events Conditions
12:53 AM 70.0 °F 45.0 °F 41% 30.00 in 10.0 mi SSW 13.8 mph - N/A   Clear
1:53 AM 68.0 °F 44.1 °F 42% 30.00 in 10.0 mi SSW 10.4 mph - N/A   Clear
2:53 AM 66.9 °F 43.0 °F 42% 30.01 in 10.0 mi South 10.4 mph - N/A   Clear
3:53 AM 64.9 °F 43.0 °F 45% 30.01 in 10.0 mi South 8.1 mph - N/A   Clear
4:53 AM 62.1 °F 44.1 °F 52% 30.00 in 10.0 mi South 6.9 mph - N/A   Clear
5:53 AM 62.1 °F 45.0 °F 53% 30.01 in 10.0 mi South 6.9 mph - N/A   Clear
6:53 AM 66.9 °F 45.0 °F 45% 30.01 in 10.0 mi SSW 9.2 mph - N/A   Clear
7:53 AM 71.1 °F 46.0 °F 41% 30.01 in 10.0 mi SSW 12.7 mph - N/A   Clear
8:53 AM 73.0 °F 45.0 °F 37% 30.01 in 10.0 mi SSW 12.7 mph - N/A   Clear
9:53 AM 75.0 °F 45.0 °F 34% 30.00 in 10.0 mi SSW 11.5 mph 17.3 mph N/A   Clear
10:53 AM 77.0 °F 45.0 °F 32% 29.98 in 10.0 mi Variable 5.8 mph - N/A   Clear
11:53 AM 79.0 °F 43.0 °F 28% 29.96 in 10.0 mi SSW 6.9 mph - N/A   Clear
12:53 PM 82.0 °F 42.1 °F 24% 29.94 in 10.0 mi Variable 4.6 mph - N/A   Clear
1:53 PM 82.9 °F 41.0 °F 23% 29.91 in 10.0 mi WNW 5.8 mph - N/A   Clear
2:53 PM 84.0 °F 41.0 °F 22% 29.88 in 10.0 mi Variable 5.8 mph - N/A   Clear
3:53 PM 86.0 °F 39.9 °F 20% 29.85 in 10.0 mi NW 5.8 mph - N/A   Clear
4:53 PM 87.1 °F 39.9 °F 19% 29.81 in 10.0 mi Variable 3.5 mph - N/A   Clear
5:53 PM 88.0 °F 42.1 °F 20% 29.79 in 10.0 mi North 10.4 mph - N/A   Clear
6:53 PM 84.0 °F 44.1 °F 25% 29.78 in 10.0 mi NNW 8.1 mph - N/A   Clear
7:53 PM 80.1 °F 43.0 °F 27% 29.79 in 10.0 mi WNW 4.6 mph - N/A   Partly Cloudy
8:53 PM 75.0 °F 48.0 °F 38% 29.81 in 10.0 mi WNW 18.4 mph 23.0 mph 0.00 in   Scattered Clouds
9:53 PM 72.0 °F 48.0 °F 43% 29.87 in 10.0 mi SE 3.5 mph - N/A   Clear
10:53 PM 69.1 °F 51.1 °F 53% 29.88 in 10.0 mi South 6.9 mph - N/A   Mostly Cloudy
11:53 PM 68.0 °F 50.0 °F 52% 29.89 in 10.0 mi SSW 6.9 mph - N/A   Scattered Clouds